Regional Weather Roundup
Issued by NWS

Home | Current Version | Previous Version | Text Only | Print | Product List | Glossary Off
Versions: 1 2 3 4 5 6 7 8 9 10 11 12 13 14 15 16 17 18 19 20 21 22 23 24 25 26 27 28 29 30 31 32 33 34 35 36 37 38 39 40 41 42 43 44 45 46 47 48 49 50

000
ASUS43 KBIS 280510
RWRND

NORTH DAKOTA REGIONAL WEATHER ROUNDUP
NATIONAL WEATHER SERVICE BISMARCK ND
1200 AM CDT FRI AUG 28 2015

NOTE: "FAIR" INDICATES FEW OR NO CLOUDS BELOW 12,000 FEET WITH NO
SIGNIFICANT WEATHER AND/OR OBSTRUCTIONS TO VISIBILITY.


NDZ001>003-009>011-017-280600-
NORTHWEST NORTH DAKOTA

CITY           SKY/WX    TMP DP  RH WIND       PRES   REMARKS
WILLISTON      PTCLDY    71  63  75 CALM      29.86S
MINOT          PTCLDY    69  61  75 SW5       29.85S
MINOT AFB      PTCLDY    64  64 100 S5        29.83F
$$

NDZ018>021-031>035-040>046-280600-
SOUTHWEST NORTH DAKOTA

CITY           SKY/WX    TMP DP  RH WIND       PRES   REMARKS
BISMARCK       MOCLDY    67  61  81 SW5       29.91F
DICKINSON      PTCLDY    65  57  75 S10       29.92S
GARRISON         N/A     65  60  84 SW3       29.89S
HETTINGER ARPT MOCLDY    66  56  70 SE6       29.98S
$$

NDZ004>008-012>016-024-026-027-054-280600-
NORTHEAST NORTH DAKOTA

CITY           SKY/WX    TMP DP  RH WIND       PRES   REMARKS
GRAND FORKS    CLEAR     66  64  93 S6        29.86F
GRND FRKS AFB  CLEAR     65  64  95 S7        29.87S
DEVILS LAKE    CLEAR     70  63  78 S5        29.87S
$$

NDZ022-023-025-028>030-036>039-047>053-280600-
SOUTHEAST NORTH DAKOTA

CITY           SKY/WX    TMP DP  RH WIND       PRES   REMARKS
FARGO          CLEAR     70  65  84 S7        29.89F
JAMESTOWN      CLEAR     67  64  90 SW3       29.89F
$$



USA.gov is the U.S. government's official web portal to all federal, state and local government web resources and services.